When you browse on this site, cookies collect data to enhance your experience and personalize the content and advertising you see.
Visit our Privacy Policy to learn more. By continuing to use the site, you agree to this use of cookies and data.
  • In France
  • List of Countries
  • For 7 days
  • Water Temperature
  • Weather Map
  • Weather Widgets
  • user-avatar
    Login

    Hourly Weather Andora

    Today, 25 February, Tuesday

    Time Temperature Precipitation Wind Pressure Humidity
    00:00 +3°C° 0 mm 2 mps 624 mmHg 36%
    01:00 +4°C° 0 mm 1 mps 623 mmHg 37%
    02:00 +4°C° 0 mm 1 mps 623 mmHg 38%
    03:00 +4°C° 0 mm 1 mps 622 mmHg 39%
    04:00 +4°C° 0 mm 1 mps 622 mmHg 42%
    05:00 +3°C° 0 mm 1 mps 622 mmHg 45%
    06:00 +3°C° 0 mm 1 mps 622 mmHg 45%
    07:00 +4°C° 0 mm 1 mps 623 mmHg 47%
    08:00 +5°C° 0 mm 1 mps 623 mmHg 48%
    09:00 +6°C° 0 mm 1 mps 623 mmHg 50%
    10:00 +6°C° 0 mm 1 mps 623 mmHg 49%
    11:00 +7°C° 0 mm 1 mps 623 mmHg 49%
    12:00 +8°C° 0 mm 1 mps 623 mmHg 49%
    13:00 +7°C° 0 mm 2 mps 623 mmHg 50%
    14:00 +7°C° 0 mm 2 mps 622 mmHg 52%
    15:00 +8°C° 0 mm 2 mps 622 mmHg 53%
    16:00 +6°C° 0.2 mm 2 mps 621 mmHg 65%
    17:00 +4°C° 0.2 mm 2 mps 621 mmHg 76%
    18:00 +2°C° 0.2 mm 2 mps 620 mmHg 87%
    19:00 +2°C° 0.1 mm 2 mps 620 mmHg 88%
    20:00 +1°C° 0.1 mm 2 mps 620 mmHg 89%
    21:00 +1°C° 0.1 mm 2 mps 621 mmHg 90%
    22:00 -1°C° 0 mm 2 mps 620 mmHg 89%
    23:00 -1°C° 0 mm 2 mps 620 mmHg 89%

    Tomorrow, 26 February, Wednesday

    Time Temperature Precipitation Wind Pressure Humidity
    00:00 -2°C° 0 mm 3 mps 620 mmHg 88%
    01:00 -2°C° 0 mm 2 mps 619 mmHg 87%
    02:00 -2°C° 0 mm 2 mps 619 mmHg 86%
    03:00 -3°C° 0 mm 2 mps 619 mmHg 85%
    04:00 -3°C° 0.1 mm 2 mps 619 mmHg 84%
    05:00 -3°C° 0.1 mm 2 mps 618 mmHg 84%
    06:00 -3°C° 0.1 mm 2 mps 618 mmHg 84%
    07:00 -2°C° 0.2 mm 2 mps 619 mmHg 75%
    08:00 -1°C° 0.2 mm 3 mps 620 mmHg 67%
    09:00 0°C° 0.2 mm 3 mps 620 mmHg 58%
    10:00 0°C° 0.1 mm 3 mps 621 mmHg 55%
    11:00 0°C° 0.1 mm 4 mps 621 mmHg 52%
    12:00 +1°C° 0.1 mm 4 mps 622 mmHg 49%
    13:00 +1°C° 0.1 mm 4 mps 621 mmHg 51%
    14:00 0°C° 0.1 mm 4 mps 621 mmHg 52%
    15:00 +1°C° 0.1 mm 3 mps 621 mmHg 54%
    16:00 -1°C° 0.1 mm 3 mps 620 mmHg 61%
    17:00 -2°C° 0.1 mm 3 mps 620 mmHg 68%
    18:00 -4°C° 0.1 mm 2 mps 620 mmHg 75%
    19:00 -4°C° 0 mm 2 mps 620 mmHg 77%
    20:00 -5°C° 0 mm 2 mps 621 mmHg 78%
    21:00 -5°C° 0 mm 2 mps 621 mmHg 80%
    22:00 -5°C° 0 mm 2 mps 621 mmHg 78%
    23:00 -3°C° 0 mm 1 mps 621 mmHg 76%

    Day after tomorrow, 27 February, Thursday

    Time Temperature Precipitation Wind Pressure Humidity
    00:00 -3°C° 0 mm 1 mps 621 mmHg 73%
    01:00 -3°C° 0 mm 1 mps 621 mmHg 68%
    02:00 -3°C° 0 mm 1 mps 620 mmHg 63%
    03:00 -3°C° 0 mm 1 mps 620 mmHg 58%
    04:00 -3°C° 0 mm 1 mps 620 mmHg 57%
    05:00 -3°C° 0 mm 1 mps 620 mmHg 56%
    06:00 -3°C° 0 mm 1 mps 620 mmHg 55%
    07:00 0°C° 0 mm 1 mps 621 mmHg 50%
    08:00 +2°C° 0 mm 1 mps 621 mmHg 46%
    09:00 +4°C° 0 mm 1 mps 622 mmHg 42%
    10:00 +5°C° 0 mm 1 mps 623 mmHg 38%
    11:00 +6°C° 0 mm 2 mps 623 mmHg 35%
    12:00 +7°C° 0 mm 2 mps 623 mmHg 32%
    13:00 +7°C° 0 mm 2 mps 623 mmHg 38%
    14:00 +7°C° 0 mm 2 mps 622 mmHg 45%
    15:00 +6°C° 0 mm 2 mps 622 mmHg 52%
    16:00 +5°C° 0.1 mm 2 mps 621 mmHg 64%
    17:00 +3°C° 0.1 mm 2 mps 621 mmHg 76%
    18:00 +2°C° 0.1 mm 2 mps 620 mmHg 87%
    19:00 +2°C° 0.2 mm 2 mps 621 mmHg 90%
    20:00 +2°C° 0.2 mm 2 mps 621 mmHg 93%
    21:00 +1°C° 0.2 mm 2 mps 621 mmHg 95%
    22:00 +1°C° 0.3 mm 2 mps 622 mmHg 95%
    23:00 +2°C° 0.3 mm 2 mps 622 mmHg 96%

    28 February, Friday

    Time Temperature Precipitation Wind Pressure Humidity
    00:00 +2°C° 0.3 mm 2 mps 622 mmHg 96%
    01:00 +1°C° 0.1 mm 2 mps 622 mmHg 95%
    02:00 +2°C° 0.1 mm 1 mps 622 mmHg 95%
    03:00 +2°C° 0.1 mm 1 mps 622 mmHg 95%
    04:00 +2°C° 0.1 mm 1 mps 622 mmHg 94%
    05:00 +2°C° 0.1 mm 1 mps 622 mmHg 94%
    06:00 +2°C° 0.1 mm 1 mps 622 mmHg 93%
    07:00 +3°C° 0 mm 1 mps 623 mmHg 86%
    08:00 +5°C° 0 mm 1 mps 624 mmHg 79%
    09:00 +6°C° 0 mm 0 mps 625 mmHg 73%
    10:00 +8°C° 0 mm 1 mps 626 mmHg 68%
    11:00 +9°C° 0 mm 1 mps 626 mmHg 64%
    12:00 +10°C° 0 mm 1 mps 626 mmHg 59%
    13:00 +10°C° 0 mm 1 mps 626 mmHg 60%
    14:00 +10°C° 0 mm 1 mps 626 mmHg 61%
    15:00 +10°C° 0 mm 1 mps 625 mmHg 61%
    16:00 +8°C° 0 mm 1 mps 624 mmHg 71%
    17:00 +7°C° 0 mm 1 mps 623 mmHg 81%
    18:00 +5°C° 0 mm 1 mps 622 mmHg 90%
    19:00 +5°C° 0 mm 1 mps 622 mmHg 91%
    20:00 +4°C° 0 mm 1 mps 622 mmHg 93%
    21:00 +3°C° 0 mm 2 mps 622 mmHg 94%
    22:00 +3°C° 0 mm 2 mps 621 mmHg 93%
    23:00 +3°C° 0 mm 2 mps 621 mmHg 93%

    29 February, Saturday

    Time Temperature Precipitation Wind Pressure Humidity
    00:00 +2°C° 0 mm 2 mps 620 mmHg 92%
    01:00 +2°C° 0 mm 2 mps 620 mmHg 92%
    02:00 +2°C° 0 mm 2 mps 619 mmHg 91%
    03:00 +2°C° 0 mm 2 mps 618 mmHg 90%
    04:00 +2°C° 0 mm 2 mps 618 mmHg 87%
    05:00 +1°C° 0 mm 2 mps 617 mmHg 84%
    06:00 +1°C° 0 mm 2 mps 617 mmHg 81%
    07:00 +3°C° 0 mm 2 mps 617 mmHg 76%
    08:00 +3°C° 0 mm 3 mps 618 mmHg 72%
    09:00 +4°C° 0 mm 3 mps 618 mmHg 67%
    10:00 +7°C° 0 mm 3 mps 619 mmHg 63%
    11:00 +8°C° 0 mm 3 mps 619 mmHg 59%
    12:00 +9°C° 0 mm 2 mps 619 mmHg 54%
    13:00 +8°C° 0.1 mm 2 mps 619 mmHg 63%
    14:00 +6°C° 0.1 mm 2 mps 618 mmHg 71%
    15:00 +5°C° 0.1 mm 2 mps 618 mmHg 80%
    16:00 +4°C° 0.7 mm 2 mps 618 mmHg 84%
    17:00 +3°C° 0.7 mm 2 mps 618 mmHg 88%
    18:00 +2°C° 0.7 mm 1 mps 618 mmHg 92%
    19:00 +1°C° 0.5 mm 2 mps 618 mmHg 92%
    20:00 -1°C° 0.5 mm 2 mps 619 mmHg 91%
    21:00 -2°C° 0.5 mm 2 mps 619 mmHg 91%
    22:00 -2°C° 0.1 mm 2 mps 619 mmHg 90%
    23:00 -3°C° 0.1 mm 2 mps 619 mmHg 88%

    1 March, Sunday

    Time Temperature Precipitation Wind Pressure Humidity
    00:00 -4°C° 0.1 mm 2 mps 619 mmHg 87%
    01:00 -4°C° 0 mm 2 mps 619 mmHg 87%
    02:00 -4°C° 0 mm 2 mps 618 mmHg 87%
    03:00 -5°C° 0 mm 2 mps 618 mmHg 86%
    04:00 -5°C° 0 mm 2 mps 618 mmHg 83%
    05:00 -3°C° 0 mm 1 mps 618 mmHg 79%
    06:00 -3°C° 0 mm 1 mps 618 mmHg 75%
    07:00 -1°C° 0 mm 1 mps 619 mmHg 70%
    08:00 +1°C° 0 mm 1 mps 620 mmHg 66%
    09:00 +1°C° 0 mm 2 mps 621 mmHg 61%
    10:00 +3°C° 0 mm 2 mps 621 mmHg 58%
    11:00 +4°C° 0 mm 2 mps 621 mmHg 55%
    12:00 +5°C° 0 mm 2 mps 621 mmHg 52%
    13:00 +6°C° 0 mm 2 mps 621 mmHg 52%
    14:00 +6°C° 0 mm 2 mps 621 mmHg 53%
    15:00 +6°C° 0 mm 2 mps 620 mmHg 54%
    16:00 +4°C° 0 mm 2 mps 620 mmHg 63%
    17:00 +3°C° 0 mm 1 mps 619 mmHg 71%
    18:00 +1°C° 0 mm 1 mps 618 mmHg 80%
    19:00 +1°C° 0 mm 1 mps 618 mmHg 80%
    20:00 +1°C° 0 mm 1 mps 618 mmHg 81%
    21:00 +1°C° 0 mm 1 mps 619 mmHg 81%
    22:00 +1°C° 0 mm 1 mps 618 mmHg 81%
    23:00 -1°C° 0 mm 2 mps 618 mmHg 81%
    Show more